Del Bajio, Mexico

12:37 PM CDT on May 21, 2018 (GMT -0500)
De Guanajuato International

Weather History for MMLO - January, 2013

Change the Weather History Date:

Saturday, January 12, 2013

  Actual Average Record
Temperature  
Mean Temperature 62 °F -  
Max Temperature 78 °F 72 °F 80 °F (2000)
Min Temperature 46 °F 42 °F 35 °F (1997)
Degree Days  
Heating Degree Days 3    
Growing Degree Days 12 (Base 50)    
Moisture  
Dew Point 40 °F    
Average Humidity 49    
Maximum Humidity 71    
Minimum Humidity 24    
Precipitation  
Precipitation 0.00 in - - ()
Sea Level Pressure  
Sea Level Pressure 30.08 in    
Wind  
Wind Speed 3 mph ()    
Max Wind Speed 14 mph    
Max Gust Speed -    
Visibility 8.7 miles    
Events      
Averages and records for this station are not official NWS values.
T = Trace of Precipitation, MM = Missing Value Source: Averaged Metar Reports

Daily Weather History Graph

Daily Weather History Graph

Search for Another Location

Airport or City:

Astronomy

Jan. 12, 2013 Rise Set
Actual Time 7:25 AM CST 6:23 PM CST
Civil Twilight 7:01 AM CST 6:47 PM CST
Nautical Twilight 6:34 AM CST 7:14 PM CST
Astronomical Twilight 6:07 AM CST 7:41 PM CST
Moon 7:58 AM CST (1/12) 7:39 PM CST (1/12)
Length of Visible Light 11h 45m
Length of Day
10h 58m
New Moon, 1% of the Moon is Illuminated
Jan 12
New Moon
Jan 18
First Quarter
Jan 26
Full
Feb 3
Last Quarter
Feb 10
New

Hourly Weather History & Observations

Time (CST) Temp. Windchill Dew Point Humidity Pressure Visibility Wind Dir Wind Speed Gust Speed Precip Events Conditions
12:50 AM 51.8 °F - 35.6 °F 54% 30.21 in 8.0 mi Calm Calm - N/A   Clear
1:49 AM 51.8 °F - 35.6 °F 54% 30.21 in 8.0 mi NE 6.9 mph - N/A   Clear
2:43 AM 51.8 °F - 35.6 °F 54% 29.85 in 8.0 mi Calm Calm - N/A   Clear
3:45 AM 50.0 °F - 35.6 °F 58% 30.17 in 8.0 mi Calm Calm - N/A   Clear
4:50 AM 48.2 °F - 35.6 °F 62% 30.18 in 8.0 mi Calm Calm - N/A   Clear
5:44 AM 48.2 °F - 35.6 °F 62% 29.87 in 8.0 mi Calm Calm - N/A   Clear
6:45 AM 46.4 °F 42.9 °F 37.4 °F 71% 30.20 in 8.0 mi NNE 6.9 mph - N/A   Scattered Clouds
7:45 AM 46.4 °F 42.9 °F 37.4 °F 71% 30.24 in 9.0 mi NNE 6.9 mph - N/A   Mostly Cloudy
8:43 AM 55.4 °F - 39.2 °F 54% 30.03 in 9.0 mi Calm Calm - N/A   Mostly Cloudy
9:44 AM 66.2 °F - 37.4 °F 35% 30.27 in 10.0 mi Calm Calm - N/A   Mostly Cloudy
10:42 AM 69.8 °F - 46.4 °F 43% 30.27 in 10.0 mi Calm Calm - N/A   Mostly Cloudy
12:40 PM 73.4 °F - 46.4 °F 38% 30.21 in 10.0 mi West 8.1 mph - N/A   Mostly Cloudy
1:43 PM 78.8 °F - 44.6 °F 30% 30.18 in 10.0 mi West 13.8 mph - N/A   Mostly Cloudy
2:44 PM 75.2 °F - 39.2 °F 27% 29.74 in 10.0 mi SW 13.8 mph - N/A   Mostly Cloudy
4:02 PM 78.8 °F - 39.2 °F 24% 30.09 in 10.0 mi WSW 12.7 mph - N/A   Mostly Cloudy
5:43 PM 73.4 °F - 39.2 °F 29% 29.79 in 10.0 mi WSW 11.5 mph - N/A   Mostly Cloudy
6:43 PM 68.0 °F - 42.8 °F 40% 30.12 in 8.0 mi West 8.1 mph - N/A   Mostly Cloudy
7:41 PM 64.4 °F - 42.8 °F 45% 30.09 in 8.0 mi West 5.8 mph - N/A   Mostly Cloudy
8:43 PM 60.8 °F - 42.8 °F 52% 29.81 in 8.0 mi West 8.1 mph - N/A   Mostly Cloudy
9:44 PM 59.0 °F - 42.8 °F 55% 30.15 in 8.0 mi WSW 3.5 mph - N/A   Scattered Clouds
10:44 PM 57.2 °F - 42.8 °F 59% 30.15 in 8.0 mi Calm Calm - N/A   Scattered Clouds
11:41 PM 57.2 °F - 42.8 °F 59% 29.84 in 8.0 mi Calm Calm - N/A   Scattered Clouds